STARLINK-5417, 54805

Orbit data source: Space-Track

STARLINK-5417, 54805 is a payload satellite owned by SpaceX/Seattle (US) in LEO that was launched on Sat, 17 Dec 2022 UTC via an FALCON 9 launch vehicle from the Air Force Eastern Test Range (AFETR). Payload-class satellites include a variety of spacecraft equipped with specific instruments for various scientific and technological missions. These include communications satellites like Starlink; space stations such as the ISS; scientific satellites like the Hubble; Earth observation satellites from companies like Planet Labs, Umbra, and HawkEye 360; GPS; miniature CubeSats for education and research; and military/defense satellites.

Loading next visibility...
Identifier
54805, 2022-175AZ
Orbit
LEO
Country
Flag of USUS
Related business
Manufacturer
SpaceX/Seattle
Mission
Operational Commercial Communications
Bus & Motor
STARLINK, Unknown motor
Mass
305 kg wet, ~290 kg dry
Launch date (UTC)
2022-12-17 (4 years ago)
Launch vehicle
FALCON 9
Launch site
Air Force Eastern Test Range (AFETR)
Object type
Payload
Rocket body
Debris
Shape & HBR
Box + 1 Pan, 10.1 m
Radar Cross Section
13.562 m², Large (>1 m²)

Expand to show TLE details & history
Last TLE update: 3 days ago

TLE from 3 days ago
0 STARLINK-5417
1 54805U 22175AZ  26170.71530531  .00000306  00000-0  38034-4 0  9991
2 54805  53.2058 290.9736 0001178  89.8194 270.2933 15.08016871195535
Epoch: 2026-06-19T17:10Z
TLE epoch observation values (Epoch: 2026-06-19T17:10:02.378Z)
Latitude
-0.00001°
Longitude
125.52338°
Altitude
543.152 km
Speed
7.592 km/s
True Right ascension
19h 23m 53s
True Declination
0° 00' 00"
Sunlit
Object was in full shadow at epoch
Visualization orbit readout
Latitude
Unknown
Longitude
Unknown
Altitude
Unknown
Speed
Unknown
Apparent Right ascension
Unknown
Apparent Declination
Unknown
Sunlit
N/A
Visualization observer readout
Local Sidereal Time
21:32:53
Azimuth
Unknown
Elevation
Unknown
Doppler factor
Unknown
Orbital elements
Apogee altitude
543.322 km
Perigee altitude
541.692 km
Semi-major axis
6,920.644 km
Eccentricity
0.00012
Inclination
53.2058°
RAAN
290.9736°
Arg. of periapsis
89.8194°
True anomaly
270.2798°
Mean anomaly
270.2933°
Eccentric anomaly
270.28655°
Mean motion
3.76984 °/min
Orbital period
95.49 mins
BSTAR
0.000038034
Loading maneuver chart data...
Computing Atmospheric mass density...
Loading historical data...
Loading historical data...
Loading historical data...
Loading historical data...
Loading historical data...
Loading historical data...
Loading historical data...

Documentation

Showing up to 5 results
|